Location: Alexandria
(38.8050°N, 77.0470°W)
Time: 02:46:15
(UTC-05:00)

ISS - Pass Details

Date: 10 November 2017
Orbit: 402 x 407 km, 51.6° (Epoch: 21 November)

Event Time Altitude Azimuth Distance (km) Brightness Sun altitude
Exits shadow 06:10:58 - 326° (NW) 1,925 -0.9 -7.2°
Reaches altitude 10° 06:12:40 10° 345° (NNW) 1,456 -1.3 -6.9°
Maximum altitude 06:14:27 14° 18° (NNE) 1,250 -1.3 -6.5°
Drops below altitude 10° 06:16:13 10° 51° (NE) 1,454 -0.5 -6.2°
Sets 06:19:05 0° 79° (E) 2,312 1.3 -5.7°
